EHI
23 20 18 16 16 16 16 15 15 16 17 17 14 9 4 1 0 1 2 2 2 1 1 2 3 3 3 4 5 5 5 5 5 4 3 3 3 1 1 2 2 2 1
24 21 20 19 18 17 17 17 16 16 16 14 12 9 5 2 1 1 1 2 2 2 2 2 3 2 3 4 4 4 4 4 4 3 3 3 3 2 1 1 1 1 0
27 25 25 24 20 17 17 18 16 15 13 11 8 6 4 4 4 4 3 2 1 1 1 2 3 2 2 3 3 3 3 3 3 3 3 2 2 3 2 1 0 0 0
28 28 28 27 23 19 18 18 16 14 11 8 6 4 3 4 6 6 4 3 2 1 0 1 3 2 1 1 3 3 3 2 3 3 2 1 1 3 3 1 0 0 0
28 28 28 28 27 24 21 20 17 13 9 8 6 5 4 4 4 4 5 5 5 3 1 1 1 1 0 1 2 3 3 3 3 2 1 0 1 2 3 2 1 0 0
28 28 27 26 26 26 23 21 18 13 10 10 9 7 7 5 2 1 3 6 6 4 2 1 1 1 1 0 1 1 2 2 2 2 1 0 0 1 3 3 2 1 1
25 24 22 21 21 23 21 18 16 14 13 13 12 10 9 7 2 0 1 3 4 4 4 3 2 2 1 0 0 0 1 1 1 2 1 1 1 1 2 3 3 2 2
20 18 16 15 16 18 17 15 14 14 14 14 13 11 10 6 2 0 0 1 2 4 6 5 3 2 1 0 0 0 0 1 1 1 2 2 2 1 2 3 3 3 2
16 15 14 14 14 14 15 15 15 15 15 13 12 10 8 5 2 0 0 1 3 5 5 4 2 1 0 0 0 0 0 1 1 1 2 2 2 1 1 2 3 3 2
13 12 13 13 13 13 14 15 16 16 15 12 10 9 6 4 1 0 0 1 4 5 5 2 1 0 0 0 0 0 0 0 0 0 1 1 1 0 1 2 2 3 3
8 8 9 11 12 13 14 15 16 16 14 11 8 6 3 2 0 0 0 2 3 5 4 2 0 0 0 0 0 0 0 0 0 1 1 1 1 1 2 2 2 2 3
4 5 6 8 11 13 15 16 15 14 12 10 7 3 1 0 0 0 0 1 1 3 2 1 0 0 0 0 0 0 0 0 0 1 2 2 2 2 3 3 2 2 3
4 4 4 5 7 9 10 12 12 12 11 9 6 3 1 1 0 0 0 0 0 1 1 0 0 0 0 0 0 0 0 0 0 1 1 2 3 3 2 3 3 3 3
4 4 4 3 2 3 4 6 9 9 10 9 6 4 4 3 1 0 0 0 0 0 0 0 0 0 0 0 0 0 0 0 0 0 0 1 1 2 3 3 3 3 3
4 3 2 1 0 0 1 2 4 6 7 6 5 5 5 4 2 0 0 0 0 0 0 0 0 0 0 0 0 0 0 0 0 0 0 0 1 2 2 2 2 2 2
3 3 1 0 0 0 0 1 1 2 3 2 2 3 3 2 1 0 0 0 0 0 0 0 0 0 0 0 0 0 0 0 0 0 0 1 2 2 1 1 1 1 1
4 3 2 1 0 0 0 0 0 0 0 0 0 1 1 0 0 0 0 0 0 0 0 0 0 0 0 0 0 0 0 0 0 0 0 1 2 1 0 0 0 0 0
3 3 2 1 0 0 0 0 0 0 0 0 0 0 0 0 0 0 0 0 0 0 0 0 0 0 0 0 0 0 0 0 0 0 0 0 1 1 0 0 0 0 0
3 3 2 1 0 0 0 0 0 0 0 0 0 0 0 0 0 0 0 0 0 0 0 0 0 0 0 0 0 0 0 0 0 0 0 0 0 0 0 0 0 0 0
3 2 1 0 0 0 0 0 0 0 0 0 0 0 0 0 0 0 0 0 0 0 0 0 0 0 0 0 0 0 0 0 0 0 0 0 0 0 0 0 0 0 0
3 2 0 0 0 0 1 0 0 0 0 0 0 0 0 0 0 0 0 0 0 0 0 0 0 0 0 0 0 0 0 0 0 0 0 0 0 0 0 0 0 0 0
2 1 0 0 0 0 0 0 0 0 0 0 0 0 0 0 0 0 0 0 0 0 0 0 0 0 0 0 0 0 0 0 0 0 0 0 0 0 0 0 0 0 0
1 1 0 0 0 0 0 0 0 0 0 0 0 0 0 0 0 0 0 0 0 0 0 0 0 0 0 0 0 0 0 0 0 0 0 0 0 0 0 0 0 0 0
0 0 0 0 0 0 0 0 0 0 0 0 0 0 0 0 0 0 0 0 0 0 0 0 0 0 0 0 0 0 0 0 0 0 0 0 0 0 0 0 0 0 0
0 0 0 0 0 0 0 0 0 0 0 0 0 0 0 0 0 0 0 0 0 0 0 0 0 0 0 0 0 0 0 0 0 0 0 0 0 0 0 0 0 0 0
0 0 0 0 0 0 0 0 0 0 0 0 0 0 0 0 0 0 0 0 0 0 0 0 0 0 0 0 0 0 0 0 0 0 0 0 0 0 0 0 0 0 0
Wind_Speed
4 3 3 3 2 2 2 2 2 2 2 2 2 1 1 1 1 2 2 2 2 1 1 1 0 1 0 0 0 1 1 2 2 0 0 1 2 2 2 2 2 1 2
4 4 3 2 2 2 2 2 2 2 1 2 2 2 1 1 2 2 2 2 2 1 1 1 1 0 1 1 1 1 1 1 2 1 1 1 1 1 2 2 3 3 2
4 3 3 2 2 2 2 1 1 1 2 2 2 2 1 2 2 2 2 2 2 1 1 1 0 1 1 1 1 1 1 2 2 2 1 1 1 1 2 2 3 3 3
4 3 3 3 3 2 2 1 1 1 2 2 2 1 2 2 1 1 1 2 2 1 1 1 1 1 1 1 1 1 2 3 2 2 2 1 1 1 1 1 2 2 2
4 3 2 2 2 2 2 2 1 1 2 2 2 2 2 2 1 1 2 3 3 2 2 2 2 3 3 2 2 2 3 3 3 2 2 1 1 1 0 0 1 1 2
4 3 2 2 2 2 2 2 2 2 2 2 2 2 2 2 3 4 4 4 4 3 2 2 3 3 4 4 5 4 4 3 3 2 1 1 0 1 0 1 1 0 1
3 3 2 3 3 2 3 3 3 2 2 2 3 3 3 3 4 5 6 4 3 2 2 2 2 3 3 3 5 6 5 5 3 2 2 1 1 2 2 1 1 1 0
4 3 3 3 3 2 3 3 2 2 2 2 2 2 3 3 5 5 6 4 3 3 2 2 2 2 2 3 4 5 4 4 3 2 1 0 1 1 2 2 2 1 1
4 3 2 3 3 3 3 2 2 3 3 2 2 3 3 3 4 5 5 4 3 3 3 3 2 2 3 4 4 4 4 3 5 6 4 4 4 4 3 3 2 1 1
3 2 2 2 3 3 3 3 2 3 3 3 3 3 3 3 5 6 5 3 4 3 3 3 5 4 4 4 4 4 3 2 2 4 5 5 4 4 4 2 2 1 0
3 3 3 3 2 2 2 2 3 3 4 3 4 3 4 4 5 6 6 3 3 3 3 2 2 4 5 4 3 2 2 2 2 3 3 3 3 3 3 2 1 1 1
4 4 4 3 3 3 3 3 3 4 4 3 3 3 3 3 4 5 6 5 4 3 2 2 2 5 6 5 4 4 4 4 3 3 3 3 3 3 2 2 2 1 1
5 5 5 5 4 4 4 3 3 3 3 2 3 3 2 2 3 6 6 6 5 4 3 5 5 5 5 4 6 6 4 3 3 3 2 2 2 2 2 2 3 2 2
6 5 4 5 5 5 4 3 2 2 2 2 2 2 2 2 2 2 3 4 5 4 4 5 6 6 5 5 5 4 3 3 3 2 1 1 2 2 2 2 2 2 2
5 5 4 4 4 4 5 4 3 2 1 2 2 2 3 2 1 2 3 3 2 3 3 3 4 4 4 4 4 4 3 3 3 2 2 2 2 2 2 2 2 2 2
5 4 3 3 3 3 4 5 8 6 7 6 3 3 2 3 4 6 6 6 6 6 5 3 3 3 3 2 2 3 3 3 2 2 2 2 1 1 2 2 2 1 2
5 4 3 3 3 3 3 3 3 5 8 8 6 5 5 5 7 8 8 8 7 6 4 3 2 2 2 2 2 2 1 2 1 1 1 1 1 1 2 2 2 2 2
5 5 4 3 3 3 3 3 3 3 3 3 5 6 6 7 7 7 7 7 5 4 3 2 1 1 1 1 1 1 1 1 1 1 1 1 1 1 1 2 2 2 2
4 3 3 3 3 3 3 3 3 3 3 2 2 4 5 6 7 6 5 4 3 2 2 1 1 1 1 1 1 1 1 1 1 1 1 1 1 1 1 2 2 2 2
3 6 5 3 3 3 3 3 3 3 3 2 2 1 2 3 3 3 3 2 2 1 1 1 1 1 1 1 1 1 1 1 2 1 1 1 1 1 1 2 2 2 2
3 4 6 4 3 3 3 3 3 3 3 2 2 1 2 3 3 2 2 2 1 1 0 0 0 1 1 1 1 1 1 1 1 1 1 1 1 1 1 2 2 2 3
3 3 3 3 3 3 3 3 3 3 3 3 2 2 3 3 2 2 2 1 1 0 0 0 0 1 1 1 0 0 1 1 1 2 2 1 1 1 2 2 2 3 3
4 4 3 3 3 3 3 2 2 2 2 2 2 2 2 2 1 1 1 0 0 1 1 0 0 1 1 1 1 1 1 2 2 2 2 2 2 2 2 2 3 3 3
4 4 4 3 3 3 3 3 2 2 2 2 2 2 2 1 1 1 0 0 1 1 1 0 0 1 1 1 1 1 2 2 2 2 2 2 2 2 2 2 3 3 3
4 3 3 3 3 3 3 3 3 2 2 2 2 2 2 1 1 1 0 1 1 1 1 1 1 1 2 2 3 3 3 2 2 2 2 2 2 2 2 3 3 3 3
4 4 3 3 3 3 3 3 3 3 2 2 2 2 2 2 1 1 1 1 1 1 1 1 2 2 3 3 4 4 3 2 2 2 2 2 2 2 2 2 3 3 3
Wind_Direction
187 197 194 193 194 189 194 219 223 223 212 207 204 194 171 146 132 137 150 145 143 125 108 124 282 339 358 348 124 151 154 148 166 197 48 29 45 42 34 37 40 35 36
181 182 184 178 168 176 199 219 207 204 192 184 175 168 157 142 133 141 159 165 168 170 178 172 258 70 60 39 93 120 138 148 154 164 76 39 42 41 45 49 51 55 51
160 171 165 157 161 185 205 208 187 175 144 140 152 163 163 147 140 154 170 172 177 192 183 165 184 119 99 83 100 113 116 122 133 143 116 59 51 45 45 51 55 47 57
150 155 164 177 186 194 193 166 139 141 136 131 145 155 144 136 133 145 159 154 158 152 112 105 91 130 167 147 125 130 119 110 113 124 113 75 53 47 58 54 46 35 38
141 149 170 164 155 142 127 112 112 132 139 128 124 106 104 112 103 112 127 129 126 105 68 52 57 68 81 93 105 123 123 119 122 119 114 89 65 92 90 5 63 39 34
140 151 143 128 123 124 123 118 102 94 94 100 104 99 84 72 71 90 100 103 106 103 85 55 54 55 59 66 80 92 110 127 138 133 128 141 193 202 152 152 136 46 9
131 127 118 121 120 129 130 120 114 106 102 101 96 91 85 69 75 84 87 96 96 93 91 77 66 59 64 76 74 69 63 68 101 150 147 191 203 207 166 130 120 75 325
118 114 113 121 124 119 116 120 117 112 112 106 100 102 97 77 81 96 95 92 87 78 75 85 82 50 58 89 88 73 61 49 50 84 128 228 217 186 169 158 148 110 56
113 111 112 124 120 114 110 114 121 118 113 111 99 100 98 72 69 92 99 97 91 72 60 61 71 63 59 84 95 90 69 45 53 64 62 57 62 76 103 107 103 100 35
108 107 104 109 118 127 135 136 131 126 125 109 90 81 84 70 61 77 98 103 98 84 66 55 62 74 75 80 98 106 93 53 52 50 47 42 49 59 68 98 137 136 82
99 100 93 97 105 114 117 121 118 115 106 101 96 76 66 66 66 70 80 95 107 98 84 63 49 66 77 78 86 96 116 109 78 72 59 47 42 41 40 47 74 135 141
96 87 80 77 82 88 95 96 104 115 112 107 97 76 59 60 66 72 73 76 90 101 98 79 68 74 71 67 67 66 80 84 81 75 66 49 34 24 18 23 43 70 74
92 85 79 73 68 73 91 99 97 102 113 114 105 91 69 58 62 75 81 81 82 87 87 86 80 74 72 65 57 60 73 80 85 79 65 34 11 6 16 27 34 41 36
99 91 85 83 75 63 62 70 89 100 114 112 109 105 93 75 64 68 76 81 79 81 77 74 72 69 68 64 57 55 60 69 83 82 60 29 23 31 32 26 24 18 23
104 99 91 86 89 78 65 52 60 47 98 139 139 135 129 117 102 106 113 104 105 105 93 68 58 57 55 49 47 47 48 52 51 41 49 46 40 37 24 17 18 15 11
115 110 105 100 94 93 90 67 50 59 58 66 89 115 96 112 108 96 97 98 98 105 98 83 70 61 58 50 46 39 37 37 24 26 35 35 34 29 22 22 26 18 358
127 126 118 115 113 109 105 104 84 54 55 54 56 78 100 101 99 101 97 88 81 92 91 87 80 68 58 54 46 40 18 4 7 32 36 25 26 28 25 15 11 3 345
123 126 124 122 120 114 112 110 110 105 81 48 41 59 79 90 94 98 101 90 70 68 84 92 88 71 63 54 38 21 16 22 27 22 22 24 26 24 13 357 352 343 329
126 125 118 112 107 106 106 104 102 100 96 87 69 56 69 79 76 75 84 90 97 88 85 78 65 60 57 53 27 13 20 18 5 5 15 19 11 6 350 340 333 327 320
122 129 124 121 119 115 113 112 108 105 103 102 99 98 99 91 83 70 70 84 92 89 89 87 58 41 34 35 24 16 21 16 6 0 349 348 339 327 324 323 322 319 315
120 125 122 119 120 123 120 121 123 122 120 117 113 105 120 114 111 103 92 83 89 102 104 85 41 15 11 9 17 31 28 4 346 336 337 333 328 323 319 318 316 314 316
126 127 125 125 124 121 122 124 125 124 127 124 114 102 100 104 110 107 99 85 49 7 336 114 7 346 332 322 320 332 327 324 326 327 322 315 306 304 308 316 321 323 321
128 127 121 122 124 121 118 120 123 122 122 121 122 117 110 107 112 115 111 97 52 10 5 36 41 355 350 347 338 309 285 284 283 280 282 290 294 294 300 309 318 323 324
130 131 129 130 128 127 126 124 122 121 121 123 130 134 134 132 128 124 120 42 47 36 32 31 12 348 344 345 336 325 310 301 293 268 263 266 278 292 304 309 312 315 312
129 130 132 138 142 139 135 133 131 131 128 129 137 136 134 131 128 118 93 67 68 49 27 17 6 349 342 343 341 329 326 324 319 311 281 268 274 287 296 299 304 309 312
132 134 137 140 144 145 146 146 143 138 136 135 139 139 142 144 143 131 116 102 80 39 13 2 354 346 342 340 341 342 337 327 320 310 293 284 288 296 302 295 301 305 314